カタログに戻る

USA 474

運用中軍事VLEO
NORAD 62543·PAYLOAD·🇺🇸 United States

打ち上げ Jan 10, 2025 から Vandenberg Space Force Base

Loading…

次のパス (今後24時間)

TLE

古いSource: Mike McCants

元期: Aug 23, 2026, 20:16 UTC

1 62543U 25005M   26235.84488125 0.00000000  00000-0  00000-0 0    03
2 62543  70.0191 246.9440 0003000 150.5831 209.4169 14.96713429    02

AllMySatでUSA 474をリアルタイム追跡

Download on the App Store